Regional Weather Roundup
Issued by NWS

Home | Current Version | Previous Version | Text Only | Print | Product List | Glossary Off
Versions: 1 2 3 4 5 6 7 8 9 10 11 12 13 14 15 16 17 18 19 20 21 22 23 24 25 26 27 28 29 30 31 32 33 34 35 36 37 38 39 40 41 42 43 44 45 46 47 48 49 50

000
ASUS43 KBIS 291431
RWRND
NORTH DAKOTA REGIONAL WEATHER ROUNDUP
NATIONAL WEATHER SERVICE EASTERN NORTH DAKOTA/GRAND FORKS ND
900 AM CDT THU JUN 29 2017

  NOTE: "FAIR" INDICATES FEW OR NO CLOUDS BELOW 12,000 FEET WITH NO
  SIGNIFICANT WEATHER AND/OR OBSTRUCTIONS TO VISIBILITY.

NDZ001>003-009>011-017-291500-
...NORTHWEST NORTH DAKOTA...

CITY           SKY/WX    TMP DP  RH WIND       PRES   REMARKS
WILLISTON      FAIR      67  50  54 N10       29.83R
MINOT          FAIR      70  52  52 CALM      29.80S
MINOT AFB      FAIR      68  52  57 CALM      29.79S
$$

NDZ018>021-031>035-040>046-291500-
...SOUTHWEST NORTH DAKOTA...

CITY           SKY/WX    TMP DP  RH WIND       PRES   REMARKS
BISMARCK       PTSUNNY   62  57  83 SW3       29.82R
DICKINSON      FAIR      63  46  54 SE6       29.80R
GARRISON         N/A     65  53  65 CALM      29.81R
HETTINGER      CLOUDY    63  51  65 W9        29.85R
$$

NDZ004>008-012>016-024-026-027-054-291500-
...NORTHEAST NORTH DAKOTA...

CITY           SKY/WX    TMP DP  RH WIND       PRES   REMARKS
GRAND FORKS    CLOUDY    61  60  97 CALM      29.80R
GRAND FORKS AF PTSUNNY   63  63 100 CALM      29.80F
DEVILS LAKE    FAIR      66  61  84 W5        29.81R
$$

NDZ022-023-025-028>030-036>039-047>053-291500-
...SOUTHEAST NORTH DAKOTA...

CITY           SKY/WX    TMP DP  RH WIND       PRES   REMARKS
JAMESTOWN      FAIR      65  58  78 N5        29.80R
FARGO          CLOUDY    64  60  87 N7        29.79R
WAHPETON       CLOUDY    63  57  82 N9        29.77F
$$



USA.gov is the U.S. government's official web portal to all federal, state and local government web resources and services.